Wind_Speed
14 15 16 17 18 18 19 18 18 19 20 21 23 24 24 25 12 4 1 3 5 8 7 4 5 9 14 6 4 4 1 3 4 6 4 9 8 6 3 9 2 1 3 6 21
15 16 17 18 19 20 19 18 19 19 21 21 22 24 24 21 5 3 4 7 7 5 3 4 1 5 4 5 3 1 2 1 1 3 5 13 11 11 5 9 2 5 10 20 19
16 17 18 20 20 20 19 19 19 19 20 21 22 22 24 13 0 2 6 4 3 3 3 1 2 2 3 2 2 1 3 3 0 3 6 11 9 7 6 8 6 10 16 18 18
18 18 19 20 20 21 20 21 20 20 20 20 21 20 18 4 1 3 5 3 2 6 5 1 0 2 2 3 1 2 2 3 2 3 7 10 10 6 10 2 2 14 20 18 14
18 18 19 22 22 22 21 21 20 20 20 19 18 17 7 3 1 4 3 2 4 6 5 3 5 2 4 2 3 1 2 3 1 4 6 10 8 4 9 5 12 17 18 17 15
19 19 21 22 23 23 22 21 20 20 19 17 14 12 3 2 2 2 2 3 5 6 5 5 4 2 4 2 2 2 3 4 2 4 8 12 6 5 5 11 14 17 17 16 17
20 20 21 23 24 23 24 22 21 20 18 12 7 6 1 7 1 3 3 2 3 5 4 3 4 2 2 2 4 2 4 2 1 4 4 9 4 13 9 14 16 16 15 15 15
21 21 22 23 23 24 23 22 21 18 11 4 3 2 5 2 5 5 4 3 2 5 3 5 2 2 1 2 3 2 2 3 2 2 3 12 8 12 14 17 16 15 14 14 17
21 22 22 22 23 24 23 21 14 7 3 0 1 1 6 5 2 3 6 2 3 3 4 2 4 2 1 2 2 5 2 4 5 4 2 11 4 1 13 14 15 15 15 14 14
21 22 22 22 23 24 20 10 1 1 3 3 1 2 4 1 3 2 5 3 3 3 2 5 4 0 2 3 7 2 1 3 5 1 4 8 6 2 11 14 17 16 15 14 14
20 22 21 22 22 20 15 1 2 2 2 3 1 3 4 8 2 1 3 6 2 4 2 3 3 5 6 3 7 5 1 4 4 1 3 7 6 7 11 13 14 15 15 15 15
20 21 21 20 20 9 7 4 4 2 6 4 7 8 8 2 3 1 7 4 2 4 3 2 4 3 2 4 5 2 2 3 3 5 2 2 3 3 8 9 11 12 13 14 12
20 21 20 19 11 5 6 6 10 5 2 5 4 4 3 10 5 5 9 4 3 5 4 3 3 4 4 4 5 3 3 2 2 3 3 2 1 2 1 8 4 11 15 15 16
20 20 20 18 2 7 2 6 11 12 2 3 2 2 4 4 5 6 9 3 2 5 5 3 1 3 2 4 7 4 6 3 1 1 2 5 2 4 3 7 6 7 14 17 16
20 20 16 13 8 2 1 12 4 3 2 2 2 2 1 7 2 5 2 3 5 5 4 3 5 4 2 3 9 3 3 4 3 3 2 3 3 1 1 4 7 6 7 14 11
22 17 13 6 6 4 7 6 3 1 5 2 0 2 4 5 1 3 4 3 2 4 1 2 1 4 2 3 3 11 5 5 3 1 3 1 2 2 3 4 8 7 5 7 8
21 15 11 6 1 5 8 2 2 3 2 1 2 2 3 7 4 4 11 10 6 5 6 2 4 3 3 3 5 3 4 1 2 4 2 2 3 4 3 6 8 11 9 5 8
21 13 5 5 4 3 0 2 3 2 3 2 2 3 5 8 8 5 9 10 4 3 3 7 6 6 5 6 4 4 4 3 3 3 3 2 3 1 2 5 6 7 9 4 6
18 4 3 6 4 5 2 3 5 4 3 6 5 3 2 2 4 11 11 8 11 10 4 5 5 2 3 2 2 5 4 4 6 1 3 1 3 8 3 2 3 4 1 3 5
6 3 6 6 8 2 2 3 2 2 3 2 2 2 1 1 6 9 9 6 7 13 7 4 2 1 2 4 8 2 9 4 1 5 4 2 3 3 3 5 1 2 0 1 2
2 2 7 4 3 3 3 3 3 4 3 1 1 3 2 2 1 3 4 3 9 10 9 7 3 3 2 3 7 4 4 5 4 2 4 3 3 5 6 3 1 3 3 4 6
2 2 4 7 2 1 1 1 4 3 2 2 2 3 2 3 3 3 6 4 4 11 10 7 3 6 8 1 2 1 5 6 5 5 0 2 4 1 4 2 2 1 4 7 7
2 1 4 3 2 2 1 2 3 2 3 2 3 4 1 2 3 4 4 2 1 9 11 9 3 4 2 3 3 4 4 3 7 2 6 5 2 3 3 5 4 3 5 4 5
0 2 2 3 2 2 2 1 3 4 6 4 4 2 2 3 3 3 2 1 1 4 1 8 4 5 8 3 3 4 5 7 3 4 7 5 3 4 4 7 6 4 3 3 4
3 2 2 2 3 3 2 2 2 3 3 3 3 9 6 3 2 4 1 2 1 1 2 6 8 6 4 3 3 5 9 9 6 7 6 6 6 3 5 2 5 4 2 4 4
2 2 1 2 1 1 1 1 3 4 3 4 6 6 8 6 4 2 1 0 1 1 2 1 4 6 4 5 8 6 8 7 2 6 3 3 4 5 4 7 7 3 1 3 2
3 1 2 2 1 2 1 2 2 6 6 12 11 9 5 5 5 4 3 1 2 2 3 2 5 4 5 3 8 5 9 9 4 5 4 6 3 3 5 6 5 3 2 4 5
Wind_Direction
5 6 3 1 360 356 353 348 348 346 345 345 344 344 344 341 346 18 353 297 307 324 338 338 139 149 169 161 185 184 151 151 194 174 189 158 186 139 117 145 142 87 126 133 148
2 1 359 356 355 351 348 345 343 344 342 342 343 342 343 341 359 15 331 309 309 321 40 11 77 155 143 148 151 191 83 136 234 233 205 172 186 158 153 167 150 100 95 135 150
359 357 354 352 350 346 345 341 338 339 338 339 340 340 342 343 319 349 355 335 316 344 354 290 269 215 102 90 58 156 116 190 50 224 184 180 163 167 154 213 206 169 148 155 160
356 353 350 349 345 343 342 336 334 334 334 336 337 339 342 2 119 351 10 11 11 348 345 238 153 84 81 87 70 252 103 232 106 163 169 178 149 182 196 60 262 157 156 161 170
352 348 347 346 344 341 336 332 330 329 328 331 334 341 358 360 282 354 3 323 339 359 25 26 52 122 116 115 122 74 11 227 197 186 163 146 177 191 222 59 124 142 159 168 180
352 347 344 344 342 336 333 330 327 324 322 322 327 341 39 293 308 341 330 301 350 7 2 19 20 359 100 87 66 297 287 284 240 147 173 187 172 184 157 133 140 155 171 177 186
352 348 343 341 338 334 330 328 322 317 314 311 315 346 76 248 304 292 270 295 342 343 346 21 346 323 148 111 352 17 329 60 18 133 171 177 199 228 157 161 161 172 180 183 197
351 348 343 340 336 331 327 325 316 311 309 304 310 14 259 244 298 262 248 296 299 326 298 342 10 104 2 85 45 60 59 330 11 217 156 196 257 227 168 169 174 181 186 193 201
348 346 343 340 333 328 326 322 314 322 342 299 43 40 275 307 280 273 216 237 332 3 26 355 52 43 86 116 136 35 333 325 350 298 229 217 254 215 175 182 180 186 195 198 205
346 344 342 339 334 331 331 327 78 37 63 53 45 282 269 62 327 307 216 194 63 4 52 37 44 75 97 202 233 162 14 298 274 20 216 210 268 149 188 194 193 191 194 203 210
346 342 341 338 335 335 342 291 302 186 26 236 242 274 282 312 307 177 185 145 111 61 149 29 225 207 188 138 122 124 136 272 271 273 240 203 222 226 197 212 211 200 198 207 212
344 341 339 337 337 344 5 74 84 319 308 248 252 266 266 311 301 179 160 163 159 168 152 170 222 189 147 173 149 133 163 244 280 344 210 193 178 326 203 232 237 213 211 218 198
343 339 337 338 339 11 63 109 338 179 266 288 223 243 232 176 222 232 177 151 151 160 162 186 125 130 220 175 157 171 207 198 294 344 81 341 122 325 189 247 261 225 219 214 208
342 338 336 341 64 346 129 343 328 173 355 273 249 270 176 194 231 209 184 150 143 204 166 225 205 233 200 199 183 197 209 188 263 308 20 351 293 246 314 315 325 284 213 214 208
341 335 333 328 306 254 252 338 129 183 315 66 167 359 137 202 119 191 190 136 184 163 193 150 169 179 273 216 189 105 111 133 95 90 211 31 272 266 243 240 342 354 214 222 208
338 330 326 319 302 274 315 341 172 195 247 27 16 163 156 218 241 109 159 91 114 144 238 250 277 261 248 61 167 142 109 74 77 120 236 43 289 200 305 337 316 329 263 225 196
334 321 306 281 262 309 324 184 166 204 3 79 50 22 229 193 216 167 178 183 180 166 214 222 225 258 210 129 104 142 156 224 233 208 238 140 242 264 282 327 289 294 291 218 180
333 321 299 254 258 341 343 131 190 227 252 345 325 289 214 168 215 168 155 192 204 138 142 199 204 195 167 221 166 162 216 212 236 215 168 154 228 180 78 303 312 280 257 237 183
339 8 52 334 300 220 147 185 209 207 340 331 303 257 228 212 234 207 215 209 199 191 191 162 226 272 228 132 187 157 179 86 109 99 252 312 258 277 138 238 10 28 84 191 208
351 38 15 19 114 104 117 217 236 233 329 311 310 352 314 342 195 192 182 200 195 200 217 179 197 190 90 123 56 239 136 154 140 178 221 197 274 259 274 234 63 82 24 2 279
36 88 5 73 56 59 203 231 273 263 242 276 314 299 309 326 255 208 198 218 212 184 197 155 242 152 209 196 181 144 172 68 105 324 195 219 233 221 261 265 128 33 360 6 30
17 84 348 354 83 53 121 330 332 296 278 275 247 253 265 339 286 233 224 251 180 151 179 188 181 234 254 85 333 189 190 172 195 187 102 296 225 47 221 221 127 79 32 45 47
52 35 10 356 113 83 22 322 277 287 276 297 279 238 244 303 300 235 212 108 189 173 172 170 196 201 185 156 156 211 162 132 103 114 180 197 227 118 204 228 194 127 84 59 50
346 120 50 62 36 49 33 37 296 296 262 269 270 268 278 271 216 295 264 160 3 226 71 157 147 188 211 165 150 167 176 174 135 178 159 227 271 281 224 223 186 129 107 80 53
15 67 3 111 97 75 235 325 300 306 258 257 241 233 234 255 253 231 250 283 84 354 94 190 193 186 193 199 215 193 175 178 192 164 196 164 208 288 24 26 125 166 116 91 69
33 348 30 77 311 179 54 54 302 316 262 263 241 344 219 231 242 277 216 342 3 341 113 61 163 165 163 179 201 206 194 190 206 168 135 158 240 41 78 112 121 141 17 39 10
29 15 299 356 117 197 91 342 274 328 263 251 291 291 264 242 311 306 277 301 0 260 132 135 142 160 183 166 158 202 196 184 170 198 170 199 82 51 113 115 117 112 81 34 353
Height
812 809 808 805 803 801 798 796 793 791 788 784 780 776 771 767 764 764 763 764 762 762 762 763 764 766 770 769 769 770 784 798 791 794 784 776 783 781 781 788 787 789 792 793 801
811 810 808 806 803 801 798 795 792 789 787 783 779 775 771 767 764 763 764 762 762 761 762 761 760 762 763 766 767 771 782 789 776 774 776 773 775 781 787 790 793 794 796 799 804
812 810 807 804 803 801 797 794 791 788 786 782 779 775 770 766 765 764 762 762 761 760 761 760 759 758 763 762 768 774 782 775 771 769 769 772 777 776 784 796 786 790 796 799 804
812 809 807 804 802 798 794 792 789 786 785 781 778 774 769 767 786 764 763 762 762 760 759 759 757 761 767 772 768 778 773 771 767 766 770 776 773 780 779 780 777 784 791 798 803
811 809 806 804 800 797 794 791 787 785 782 780 777 773 769 769 767 764 763 763 762 761 759 758 760 764 772 770 770 773 771 768 764 767 769 771 777 779 780 778 779 787 793 796 802
812 808 805 802 799 796 793 789 786 783 780 778 776 774 772 778 765 763 763 764 762 761 760 759 761 760 765 769 770 770 769 769 763 767 768 772 777 776 779 778 784 789 792 795 798
810 807 804 800 797 794 790 787 783 781 778 776 774 773 773 768 764 763 764 763 762 762 761 760 761 761 763 770 765 768 773 766 765 766 770 768 786 780 773 776 784 788 791 795 797
808 805 802 798 794 791 788 784 780 777 775 774 774 773 770 762 762 762 763 763 762 761 761 761 761 762 765 766 771 777 777 789 773 768 769 767 786 766 770 774 783 787 790 793 793
807 803 801 797 793 790 786 781 777 775 773 774 775 773 769 762 762 761 762 763 762 762 761 761 762 770 766 776 784 784 798 796 786 773 774 775 779 768 768 773 781 785 786 789 791
805 802 798 795 792 787 782 777 776 775 775 774 775 778 763 764 761 761 761 763 762 761 763 765 770 776 778 780 805 799 800 797 800 780 776 781 781 774 772 773 775 778 782 786 789
804 801 797 794 789 785 780 778 780 778 774 771 772 771 764 762 760 761 761 763 763 766 779 778 782 788 780 780 783 791 798 803 790 777 781 780 777 770 771 773 774 777 781 782 784
803 800 796 792 788 785 782 782 787 790 781 769 771 769 765 764 766 759 761 766 770 781 779 784 790 781 780 783 785 790 797 795 785 779 776 781 778 774 772 770 770 775 778 780 783
802 799 795 790 787 786 785 786 785 786 786 770 766 764 761 763 763 760 758 763 772 782 782 787 782 778 782 784 787 790 791 792 792 785 783 786 785 779 771 772 771 768 768 772 775
801 797 793 789 790 788 788 786 783 784 790 774 768 760 760 759 763 753 754 759 770 779 783 783 775 779 781 783 779 791 778 782 787 787 802 793 808 789 778 775 771 766 765 764 769
798 795 792 790 788 788 787 785 783 783 810 771 765 757 758 760 756 757 754 757 774 778 781 783 780 781 783 776 773 782 776 783 791 794 798 801 802 782 784 778 772 765 763 760 766
795 791 789 787 786 786 785 783 785 796 812 776 764 765 766 761 758 757 757 755 760 774 776 776 767 771 770 770 770 777 785 794 800 798 812 814 810 791 782 782 772 764 762 761 764
791 788 786 785 785 783 783 784 799 805 778 779 773 766 767 769 765 762 766 772 778 796 794 782 777 765 762 774 775 777 785 813 820 817 819 815 813 787 774 775 774 769 761 758 764
786 783 782 783 782 783 783 788 811 790 787 773 771 771 774 767 766 766 771 778 774 777 793 794 800 772 761 766 775 782 783 806 838 831 816 815 808 781 774 771 768 763 761 759 764
782 781 782 782 781 784 784 800 794 792 782 780 772 775 773 768 767 769 769 772 766 770 785 792 790 764 763 761 765 790 792 789 817 834 818 808 793 769 771 768 767 765 764 763 764
782 782 784 782 782 784 787 798 791 785 780 779 786 777 780 773 773 771 776 761 765 761 758 776 791 770 766 762 771 773 780 799 802 830 832 813 811 793 773 766 770 769 768 768 769
783 783 786 785 784 785 793 796 792 781 781 782 783 782 776 776 772 773 769 759 754 759 760 770 780 780 772 774 776 787 786 797 792 809 812 820 801 769 769 765 772 773 771 772 777
785 786 787 786 789 805 795 798 794 782 778 777 777 778 777 775 774 775 769 763 752 754 770 764 774 788 779 768 768 769 775 778 791 821 819 807 793 770 768 770 774 774 774 776 779
789 790 788 786 793 796 797 794 792 786 781 778 778 774 772 774 781 768 765 753 754 754 760 764 781 793 785 777 774 773 779 785 790 795 810 804 792 770 771 772 774 775 778 778 778
792 789 790 792 800 797 798 797 794 784 784 778 776 772 774 774 771 771 763 754 754 753 758 754 776 776 786 778 771 782 781 781 773 790 800 789 780 764 768 772 774 779 779 776 777
797 801 803 795 797 800 800 798 794 792 782 779 777 774 773 777 771 768 762 757 754 759 758 756 769 774 770 770 770 766 772 778 779 774 776 775 781 763 772 775 777 777 778 777 776
800 802 804 802 804 798 803 798 796 791 790 779 780 770 771 774 767 766 764 763 763 756 760 764 774 768 776 769 768 772 769 772 776 779 776 775 776 775 779 777 776 778 778 777 775
810 811 809 809 801 797 798 798 795 794 781 778 776 776 772 768 765 761 759 761 763 761 761 765 773 774 782 775 772 785 769 769 772 770 766 777 769 776 780 779 779 780 779 777 775